Location: Unspecified
(0.0000°N, 0.0000°E)
Time: 05:26:03
(UTC+00:00)

RS-15 - Visible Passes

Search period start: 14 February 2026 00:00
Search period end: 24 February 2026 00:00
Orbit: 1895 x 2150 km, 64.8° (Epoch: 11 February)

Date Brightness Start Highest point End Pass type
(mag) Time Alt. Az. Time Alt. Az. Time Alt. Az.
16 Feb 9.9 22:24:48 10° S 22:25:21 12° S 22:25:21 12° S visible
17 Feb 9.8 21:49:44 10° S 21:50:34 12° S 21:50:34 12° S visible
18 Feb 9.7 21:15:18 10° SSE 21:15:50 11° SSE 21:15:50 11° SSE visible
19 Feb 9.9 22:48:11 10° SSW 22:48:53 12° SSW 22:48:53 12° SSW visible
20 Feb 9.6 22:12:16 10° SSW 22:14:13 17° SSW 22:14:13 17° SSW visible
21 Feb 9.4 21:36:43 10° S 21:39:36 20° S 21:39:36 20° S visible
22 Feb 9.3 21:01:35 10° S 21:05:03 21° SSE 21:05:03 21° SSE visible
23 Feb 9.3 20:27:02 10° SSE 20:30:33 18° SE 20:30:33 18° SE visible
23 Feb 9.7 22:36:33 10° SW 22:38:19 16° SW 22:38:19 16° SW visible
